Regional Weather Roundup
Issued by NWS

Home | Current Version | Previous Version | Graphics & Text | Print | Product List | Glossary On
Versions: 1 2 3 4 5 6 7 8 9 10 11 12 13 14 15 16 17 18 19 20 21 22 23 24 25 26 27 28 29 30 31 32 33 34 35 36 37 38 39 40 41 42 43 44 45 46 47 48 49 50
000
ASUS43 KTOP 242108
RWRKS

WEATHER ROUNDUP FOR KANSAS
NATIONAL WEATHER SERVICE GOODLAND KS
400 PM CDT FRI APR 24 2015

NOTE:  "FAIR" INDICATES FEW OR NO CLOUDS BELOW 12,000 FEET WITH NO
SIGNIFICANT WEATHER AND/OR OBSTRUCTIONS TO VISIBILITY.

KSZ001>006-013>018-027>032-041>047-242200-
NORTHWEST KANSAS

CITY           SKY/WX    TMP DP  RH WIND       PRES   REMARKS
GOODLAND       CLOUDY    67  27  22 W16G45    29.57R
HAYS           CLOUDY    73  54  49 E22       29.45F THUNDER
HILL CITY      MOSUNNY   70  57  63 VRB5      29.52F
RUSSELL        PTSUNNY   74  60  61 SE14      29.49F
$$

KSZ061>065-074>080-084>089-242200-
SOUTHWEST KANSAS

CITY           SKY/WX    TMP DP  RH WIND       PRES   REMARKS
DODGE CITY     MOSUNNY   79  37  22 SW16G26   29.48F
ELKHART          N/A     74  42  31 SW8         N/A
GARDEN CITY    MOSUNNY   75  43  31 SW16      29.48F
GREAT BEND     MOSUNNY   79  57  47 S13       29.48F
LIBERAL        PTSUNNY   75  37  25 W15       29.51F
$$

KSZ066>073-081>083-090>101-242200-
SOUTHEAST KANSAS

CITY           SKY/WX    TMP DP  RH WIND       PRES   REMARKS
CHANUTE        CLOUDY    73  62  68 S14       29.64F
COFFEYVILLE    CLOUDY    70  60  70 S21G31    29.66F
HUTCHINSON     PTSUNNY   78  61  55 S18       29.52F
MEDICINE LODGE   N/A     82  56  40 S20G33    29.50F
NEWTON         CLOUDY    72  61  68 S16       29.58F
PARSONS        CLOUDY    71  60  68 S16G26    29.66F
WICHITA INTL   PTSUNNY   77  60  55 S26G33    29.54F
WICHITA JABRA  PTSUNNY   75  61  61 S21G36    29.56F
WICHITA MCCONL PTSUNNY   76  61  59 S24G32    29.56F
WINFIELD       CLOUDY    73  63  70 S21G28    29.60F
$$

KSZ007>012-019>026-033>040-048>060-102>105-242200-
NORTHEAST KANSAS

CITY           SKY/WX    TMP DP  RH WIND       PRES   REMARKS
CONCORDIA      CLOUDY    63  57  81 S12G21    29.58F
EMPORIA        CLOUDY    64  57  78 SE13      29.62F
LAWRENCE       CLOUDY    61  53  75 S15       29.67F
MANHATTAN      CLOUDY    66  57  72 S12       29.60F
MARYSVILLE     CLOUDY    61  54  77 S10G16    29.61F
OLATHE IND     CLOUDY    59  53  80 SE13      29.69F
OLATHE EXE     CLOUDY    59  54  83 SE13      29.69F
SALINA         CLOUDY    70  60  70 SE7       29.56F
TOPEKA BILLARD CLOUDY    62  56  80 S12G23    29.66F
TOPEKA FORBES  CLOUDY    62  55  77 SE10      29.65F
$$


USA.gov is the U.S. government's official web portal to all federal, state and local government web resources and services.